BREEZE-M DEB, 38649

Orbit data source: Space-Track

BREEZE-M DEB, 38649 is space debris in HEO originally from a launch on Fri, 14 Mar 2008 UTC launched from the Tyuratam Missile And Space Complex (TTMTR). Debris objects in space refer to the collection of defunct objects orbiting the Earth. Examples of debris include non-operational satellites, rocket bodies, and fragments generated from explosions, collisions, or faulty payload assembly.

Loading next visibility...
Identifier
38649, 2008-011CY
Orbit
HEO
Country
Flag of CISCIS
Related business
Manufacturer
Unknown
Mission
Spacecraft
Bus & Motor
Unknown
Mass
Unknown
Launch date (UTC)
2008-03-14 (18 years ago)
Launch vehicle
Unknown
Launch site
Tyuratam Missile And Space Complex (TTMTR)
Object type
Payload
Rocket body
Debris
Shape & HBR
Unknown shape, 0.5 m
Radar Cross Section
Medium (>0.1 m² and <1 m²)

Expand to show TLE details & history
Last TLE update: 3 days ago

TLE from 3 days ago
0 BREEZE-M DEB
1 38649U 08011CY  26171.33267405  .00002058  00000-0  26819-1 0  9999
2 38649  48.6726 162.1366 6247707  62.6239  13.0278  3.35239274185251
Epoch: 2026-06-20T07:59Z
TLE epoch observation values (Epoch: 2026-06-20T07:59:03.037Z)
Latitude
38.43635°
Longitude
-90.24834°
Altitude
2,489.877 km
Speed
8.297 km/s
True Right ascension
19h 52m 15s
True Declination
38° 18' 06"
Sunlit
Object was in daylight at epoch
Visualization orbit readout
Latitude
Unknown
Longitude
Unknown
Altitude
Unknown
Speed
Unknown
Apparent Right ascension
Unknown
Apparent Declination
Unknown
Sunlit
N/A
Visualization observer readout
Local Sidereal Time
12:30:20
Azimuth
Unknown
Elevation
Unknown
Doppler factor
Unknown
Orbital elements
Apogee altitude
24,263.244 km
Perigee altitude
698.273 km
Semi-major axis
18,858.896 km
Eccentricity
0.62477
Inclination
48.6726°
RAAN
162.1366°
Arg. of periapsis
62.6239°
True anomaly
61.63769°
Mean anomaly
13.0278°
Eccentric anomaly
31.99399°
Mean motion
0.83805 °/min
Orbital period
429.57 mins
BSTAR
0.026819
Loading maneuver chart data...
Computing Atmospheric mass density...
Loading historical data...
Loading historical data...
Loading historical data...
Loading historical data...
Loading historical data...
Loading historical data...
Loading historical data...

Documentation

Showing up to 5 results
|